Torna al catalogo

DELTA 1 DEB

AttivoSSO
NORAD 13564·DEBRIS·🇺🇸 United States

Lanciato Mar 5, 1978 da Vandenberg Space Force Base

Loading…

Prossimi Passaggi (prossime 24 ore)

TLE

AggiornatoSource: Space-Track

Epoca: Sep 13, 2026, 17:53 UTC

1 13564U 78026FB  26256.74568443  .00000337  00000-0  26346-3 0  9991
2 13564  98.8999 191.2511 0203717  76.5079 347.3026 13.89055817233041

Traccia DELTA 1 DEB in tempo reale con AllMySat

Download on the App Store